Home   Weather   Augsburg   Past weeks

Flag for Germany Past Weather in Augsburg, Bavaria, Germany — Yesterday and Last 2 Weeks

Now
48 °F

Light rain. Passing clouds.


Feels Like: 44 °F
Forecast: 45 / 49 °F
Wind: 10 mph from West

Location: Augsburg Airport

Current Time: Feb 21, 2017 at 10:49:25 pm

Latest Report: Feb 21, 2017 at 8:50 pm


Visibility: N/A

Pressure: 30.04 "Hg

Humidity: 94%

Dew Point: 46 °F

Location of AugsburgLocation

Past Weather in Augsburg — Graph

°F

Augsburg Temperature Yesterday

Maximum temperature yesterday: 48 °F (at 1:50 pm)
Minimum temperature yesterday: 39 °F (at 6:20 am)
Average temperature yesterday: 45 °F

High & Low Weather Summary for the Past Weeks

 TemperatureHumidityPressure
High57 °F (Feb 16, 2:20 pm)100% (Feb 11, 9:20 am)30.57 "Hg (Feb 11, 9:20 am)
Low21 °F (Feb 14, 6:50 am)39% (Feb 16, 2:50 pm)29.98 "Hg (Feb 7, 2:50 pm)
Average37 °F82%30.24 "Hg
* Reported Feb 6 8:20 pm — Feb 21 8:50 pm, Augsburg, Weather by CustomWeather, © 2017

Note: Actual official high and low records may vary slightly from our data, if they occured in-between our weather recording intervals... More about our weather records

Advertising

Augsburg Weather History for the Previous 24 Hours

Scroll right to see more
 ConditionsComfort  
Time TempWeatherWind HumidityBarometerVisibility
8:50 pm
Tue, Feb 21
48 °FLight rain. Passing clouds.10 mph94%30.04 "HgN/A
8:20 pm48 °FLight rain. Passing clouds.9 mph94%30.04 "HgN/A
7:50 pm48 °FLight rain. Mostly cloudy.10 mph94%30.04 "Hg5 mi
7:20 pm48 °FLight rain. Mostly cloudy.14 mph94%30.04 "Hg5 mi
6:50 pm48 °FLight rain. Mostly cloudy.10 mph94%30.04 "Hg5 mi
6:20 pm48 °FLight rain. Mostly cloudy.10 mph94%30.04 "Hg5 mi
5:50 pm48 °FMostly cloudy.9 mph94%30.04 "HgN/A
5:20 pm48 °FMostly cloudy.12 mph94%30.04 "HgN/A
4:50 pm50 °FMostly cloudy.14 mph88%30.04 "HgN/A
4:20 pm50 °FPartly sunny.16 mph88%30.04 "HgN/A
3:50 pm50 °FLight rain. Partly sunny.13 mph88%30.01 "HgN/A
3:20 pm50 °FLight rain. Mostly cloudy.15 mph88%30.01 "HgN/A
2:50 pm50 °FLight rain. Mostly cloudy.16 mph88%30.01 "HgN/A
2:20 pm50 °FDrizzle. Mostly cloudy.15 mph88%30.01 "HgN/A
1:50 pm48 °FLight rain. Mostly cloudy.13 mph94%30.01 "HgN/A
1:20 pm48 °FDrizzle. More clouds than sun.15 mph94%30.01 "Hg4 mi
12:50 pm48 °FPartly sunny.15 mph94%30.01 "Hg5 mi
12:20 pm48 °FMostly cloudy.15 mph87%30.01 "Hg5 mi
11:50 am46 °FDrizzle. Partly sunny.14 mph93%30.01 "HgN/A
11:20 am46 °FLow clouds.15 mph93%30.04 "Hg4 mi
10:50 am46 °FDrizzle. Partly sunny.17 mph93%30.01 "HgN/A
10:20 am46 °FDrizzle. Mostly cloudy.18 mph93%30.01 "HgN/A
9:50 am46 °FLight rain. Mostly cloudy.16 mph93%30.01 "HgN/A
9:20 am46 °FLight rain. Mostly cloudy.16 mph87%30.01 "HgN/A
8:50 am46 °FLight rain. Overcast.18 mph87%30.01 "HgN/A
8:20 am46 °FLight rain. Overcast.16 mph87%30.01 "HgN/A
7:50 am46 °FOvercast.21 mph87%30.01 "HgN/A
7:20 am46 °FDrizzle. Overcast.21 mph87%30.01 "HgN/A
6:50 am46 °FPassing clouds.23 mph87%30.01 "HgN/A
6:20 am46 °FPassing clouds.16 mph87%30.01 "HgN/A
Weather by CustomWeather, © 2017

See weather overviewHow to use our weather pages